Midland, TX

1:51 AM CST on February 25, 2017 (GMT -0600)
Midland

Weather History for KMDD - April, 2013

Change the Weather History Date:

Friday, April 12, 2013

  Actual Average (KMAF) Record (KMAF)
Temperature  
Mean Temperature 64 °F -  
Max Temperature 84 °F 75 °F 99 °F (1972)
Min Temperature 45 °F 46 °F 25 °F (1997)
Growing Degree Days 14 (Base 50)    
Moisture  
Dew Point 28 °F    
Average Humidity 27    
Maximum Humidity 51    
Minimum Humidity 12    
Precipitation  
Precipitation 0.00 in - - ()
Sea Level Pressure  
Sea Level Pressure 29.85 in    
Wind  
Wind Speed 8 mph (SSE)    
Max Wind Speed 18 mph    
Max Gust Speed 26 mph    
Visibility 10 miles    
Events      
Averages and records for this station are not official NWS values.
T = Trace of Precipitation, MM = Missing Value Source: NWS Daily Summary

Daily Weather History Graph

Daily Weather History Graph

Search for Another Location

Airport or City:

Trip Planner

Search our weather history database for the weather conditions in past years. The results will help you decide how hot, cold, wet, or windy it might be!

Date:

Astronomy

Apr. 12, 2013 Rise Set
Actual Time 7:22 AM CDT 8:15 PM CDT
Civil Twilight 6:57 AM CDT 8:40 PM CDT
Nautical Twilight 6:28 AM CDT 9:10 PM CDT
Astronomical Twilight 5:58 AM CDT 9:40 PM CDT
Moon 8:41 AM CDT (4/12) 10:39 PM CDT (4/12)
Length of Visible Light 13h 43m
Length of Day
12h 53m
Waxing Crescent, 5% of the Moon is Illuminated
Apr 12
Waxing Crescent
Apr 18
First Quarter
Apr 25
Full
May 2
Last Quarter
May 9
New

Hourly Weather History & Observations

Time (CDT) Temp. Windchill Dew Point Humidity Pressure Visibility Wind Dir Wind Speed Gust Speed Precip Events Conditions
12:15 AM 58.1 °F - 20.7 °F 23% 29.87 in 10.0 mi Calm Calm - N/A   Clear
12:35 AM 56.8 °F - 18.0 °F 22% 29.87 in 10.0 mi SE 6.9 mph - N/A   Clear
12:55 AM 57.9 °F - 16.9 °F 20% 29.86 in 10.0 mi SE 8.1 mph - N/A   Clear
1:15 AM 57.0 °F - 17.4 °F 21% 29.86 in 10.0 mi SE 10.4 mph - N/A   Clear
1:35 AM 56.3 °F - 22.3 °F 27% 29.86 in 10.0 mi SE 11.5 mph - N/A   Clear
1:55 AM 54.9 °F - 23.9 °F 30% 29.86 in 10.0 mi SE 11.5 mph - N/A   Clear
2:15 AM 54.5 °F - 25.3 °F 32% 29.86 in 10.0 mi SSE 9.2 mph - N/A   Clear
2:35 AM 54.1 °F - 26.2 °F 34% 29.85 in 10.0 mi SE 8.1 mph - N/A   Clear
2:55 AM 54.0 °F - 26.6 °F 35% 29.85 in 10.0 mi SE 10.4 mph - N/A   Clear
3:15 AM 53.2 °F - 26.6 °F 36% 29.85 in 10.0 mi SE 10.4 mph - N/A   Clear
3:35 AM 52.3 °F - 27.5 °F 38% 29.84 in 10.0 mi SE 10.4 mph - N/A   Clear
3:55 AM 51.8 °F - 28.0 °F 40% 29.84 in 10.0 mi SE 8.1 mph - N/A   Clear
4:15 AM 51.3 °F - 28.0 °F 41% 29.84 in 10.0 mi SE 8.1 mph - N/A   Clear
4:35 AM 50.9 °F - 27.7 °F 41% 29.85 in 10.0 mi SSE 5.8 mph - N/A   Clear
4:55 AM 50.2 °F - 27.5 °F 42% 29.85 in 10.0 mi SE 3.5 mph - N/A   Clear
5:15 AM 50.2 °F - 27.1 °F 41% 29.85 in 10.0 mi SE 5.8 mph - N/A   Clear
5:35 AM 50.0 °F - 27.3 °F 41% 29.85 in 10.0 mi SE 4.6 mph - N/A   Clear
5:55 AM 49.3 °F - 27.5 °F 43% 29.86 in 10.0 mi SE 4.6 mph - N/A   Clear
6:15 AM 48.2 °F - 27.9 °F 45% 29.87 in 10.0 mi Calm Calm - N/A   Clear
6:35 AM 45.9 °F - 28.6 °F 51% 29.87 in 10.0 mi Calm Calm - N/A   Clear
6:55 AM 46.8 °F - 28.6 °F 49% 29.87 in 10.0 mi SE 3.5 mph - N/A   Clear
7:15 AM 46.6 °F - 28.8 °F 50% 29.88 in 10.0 mi ESE 4.6 mph - N/A   Clear
7:35 AM 46.8 °F - 28.4 °F 49% 29.89 in 10.0 mi Calm Calm - N/A   Clear
7:55 AM 46.4 °F 45.2 °F 29.1 °F 51% 29.90 in 10.0 mi ESE 3.5 mph - N/A   Clear
8:15 AM 48.9 °F - 29.1 °F 46% 29.91 in 10.0 mi ESE 4.6 mph - N/A   Clear
8:35 AM 50.2 °F - 29.3 °F 45% 29.91 in 10.0 mi Calm Calm - N/A   Clear
8:55 AM 52.7 °F - 30.0 °F 42% 29.92 in 10.0 mi East 3.5 mph - N/A   Clear
9:15 AM 54.9 °F - 31.6 °F 41% 29.93 in 10.0 mi ESE 5.8 mph - N/A   Clear
9:35 AM 56.7 °F - 32.4 °F 40% 29.93 in 10.0 mi SE 8.1 mph - N/A   Clear
9:55 AM 58.6 °F - 33.3 °F 38% 29.93 in 10.0 mi SE 8.1 mph - N/A   Clear
10:15 AM 61.5 °F - 33.6 °F 35% 29.93 in 10.0 mi SE 8.1 mph - N/A   Clear
10:35 AM 64.6 °F - 34.9 °F 33% 29.93 in 10.0 mi SSE 9.2 mph - N/A   Clear
10:55 AM 68.0 °F - 35.8 °F 31% 29.93 in 10.0 mi SSE 8.1 mph - N/A   Clear
11:15 AM 69.6 °F - 35.2 °F 28% 29.93 in 10.0 mi SE 8.1 mph - N/A   Clear
11:35 AM 71.6 °F - 34.5 °F 26% 29.92 in 10.0 mi SE 10.4 mph - N/A   Clear
11:55 AM 73.8 °F - 33.6 °F 23% 29.91 in 10.0 mi South 10.4 mph - N/A   Clear
12:15 PM 75.4 °F - 32.4 °F 21% 29.91 in 10.0 mi South 9.2 mph - N/A   Clear
12:35 PM 77.5 °F - 30.0 °F 18% 29.90 in 10.0 mi South 8.1 mph - N/A   Clear
12:55 PM 78.6 °F - 27.5 °F 15% 29.89 in 10.0 mi South 10.4 mph 18.4 mph N/A   Clear
1:15 PM 78.4 °F - 27.0 °F 15% 29.89 in 10.0 mi SSW 11.5 mph 20.7 mph N/A   Clear
1:35 PM 79.3 °F - 25.9 °F 14% 29.88 in 10.0 mi SSE 9.2 mph 19.6 mph N/A   Clear
1:55 PM 79.9 °F - 25.5 °F 14% 29.87 in 10.0 mi SSE 10.4 mph 16.1 mph N/A   Clear
2:15 PM 80.6 °F - 24.4 °F 13% 29.86 in 10.0 mi South 10.4 mph 20.7 mph N/A   Clear
2:35 PM 81.1 °F - 24.8 °F 13% 29.85 in 10.0 mi South 11.5 mph 18.4 mph N/A   Clear
2:55 PM 82.8 °F - 25.2 °F 12% 29.84 in 10.0 mi SSE 13.8 mph 19.6 mph N/A   Clear
3:15 PM 83.5 °F - 25.2 °F 12% 29.83 in 10.0 mi South 15.0 mph 21.9 mph N/A   Clear
3:35 PM 83.1 °F - 24.3 °F 12% 29.83 in 10.0 mi SSW 18.4 mph 21.9 mph N/A   Clear
3:55 PM 83.3 °F - 25.2 °F 12% 29.82 in 10.0 mi SSE 15.0 mph 20.7 mph N/A   Clear
4:15 PM 83.3 °F - 24.8 °F 12% 29.81 in 10.0 mi South 12.7 mph 19.6 mph N/A   Clear
4:35 PM 83.5 °F - 25.2 °F 12% 29.80 in 10.0 mi SSW 9.2 mph 19.6 mph N/A   Clear
4:55 PM 84.2 °F - 25.7 °F 12% 29.80 in 10.0 mi South 15.0 mph 26.5 mph N/A   Clear
5:15 PM 83.3 °F - 25.5 °F 12% 29.79 in 10.0 mi SW 11.5 mph 17.3 mph N/A   Scattered Clouds
5:35 PM 83.1 °F - 25.3 °F 12% 29.78 in 10.0 mi South 8.1 mph - N/A   Scattered Clouds
5:55 PM 83.3 °F - 24.8 °F 12% 29.78 in 10.0 mi SSE 9.2 mph - N/A   Clear
6:15 PM 81.5 °F - 24.1 °F 12% 29.78 in 10.0 mi South 4.6 mph - N/A   Clear
6:35 PM 81.0 °F - 24.8 °F 13% 29.78 in 10.0 mi South 8.1 mph - N/A   Clear
6:55 PM 80.1 °F - 24.4 °F 13% 29.78 in 10.0 mi South 8.1 mph - N/A   Clear
7:15 PM 80.4 °F - 25.3 °F 13% 29.78 in 10.0 mi SSE 10.4 mph - N/A   Clear
7:35 PM 80.1 °F - 25.7 °F 14% 29.78 in 10.0 mi South 6.9 mph - N/A   Clear
7:55 PM 78.8 °F - 25.7 °F 14% 29.78 in 10.0 mi SSE 8.1 mph - N/A   Clear
8:15 PM 77.7 °F - 25.7 °F 15% 29.79 in 10.0 mi SSE 10.4 mph - N/A   Clear
8:35 PM 76.6 °F - 28.2 °F 17% 29.80 in 10.0 mi SSE 10.4 mph 16.1 mph N/A   Clear
8:55 PM 75.7 °F - 28.4 °F 17% 29.81 in 10.0 mi SSE 15.0 mph 18.4 mph N/A   Clear
9:15 PM 75.0 °F - 28.8 °F 18% 29.82 in 10.0 mi SSE 11.5 mph - N/A   Clear
9:35 PM 74.1 °F - 29.3 °F 19% 29.82 in 10.0 mi SSE 12.7 mph 18.4 mph N/A   Clear
9:55 PM 73.2 °F - 30.7 °F 21% 29.83 in 10.0 mi SSE 12.7 mph 20.7 mph N/A   Clear
10:15 PM 72.5 °F - 32.0 °F 23% 29.84 in 10.0 mi South 13.8 mph 20.7 mph N/A   Clear
10:35 PM 71.6 °F - 32.5 °F 24% 29.85 in 10.0 mi South 13.8 mph 17.3 mph N/A   Clear
10:55 PM 70.9 °F - 33.1 °F 25% 29.85 in 10.0 mi SSE 13.8 mph 19.6 mph N/A   Clear
11:15 PM 70.2 °F - 33.3 °F 26% 29.85 in 10.0 mi SSE 13.8 mph - N/A   Clear
11:35 PM 69.8 °F - 33.8 °F 27% 29.86 in 10.0 mi SSE 15.0 mph 21.9 mph N/A   Clear
11:55 PM 69.1 °F - 34.5 °F 28% 29.86 in 10.0 mi SSE 11.5 mph - N/A   Clear